Location: Preissac
(48.4072°N, 78.3618°W)
Time: 21:11:54
(UTC-05:00)

ISS - Visible Passes

Search period start: 18 November 2025 00:00
Search period end: 28 November 2025 00:00
Orbit: 414 x 420 km, 51.6° (Epoch: 18 November)

Date Brightness Start Highest point End Pass type
(mag) Time Alt. Az. Time Alt. Az. Time Alt. Az.
18 Nov -3.8 17:37:05 10° WSW 17:40:25 79° SSE 17:42:36 20° ENE visible
18 Nov -1.3 19:14:06 10° W 19:15:31 22° WNW 19:15:31 22° WNW visible
19 Nov -3.4 18:25:46 10° W 18:29:03 52° N 18:29:12 51° N visible
20 Nov -3.6 17:37:26 10° W 17:40:45 62° NNW 17:42:51 20° ENE visible
20 Nov -1.2 19:14:33 10° WNW 19:15:46 20° WNW 19:15:46 20° WNW visible
21 Nov -3.2 18:26:13 10° WNW 18:29:23 45° N 18:29:23 45° N visible
22 Nov -3.3 17:37:48 10° W 17:41:03 47° N 17:42:59 21° ENE visible
22 Nov -1.1 19:14:47 10° WNW 19:15:53 19° WNW 19:15:53 19° WNW visible
23 Nov -3.3 18:26:26 10° WNW 18:29:29 50° N 18:29:29 50° N visible
24 Nov -3.3 17:38:01 10° WNW 17:41:18 47° N 17:43:05 22° ENE visible
24 Nov -1.1 19:14:51 10° WNW 19:15:59 20° WNW 19:15:59 20° WNW visible
25 Nov -3.8 18:26:27 10° WNW 18:29:38 73° NNW 18:29:38 73° NNW visible
26 Nov -3.7 17:38:02 10° WNW 17:41:21 60° NNE 17:43:19 22° E visible
26 Nov -1.1 19:14:54 10° WNW 19:16:14 20° W 19:16:14 20° W visible
27 Nov -3.4 18:26:22 10° WNW 18:29:40 57° SSW 18:30:00 54° S visible
